TimeEST,TemperatureF,Dew PointF,Humidity,Sea Level PressureIn,VisibilityMPH,Wind Direction,Wind SpeedMPH,Gust SpeedMPH,PrecipitationIn,Events,Conditions,WindDirDegrees,DateUTC
12:00 AM,30.2,30.2,100,29.95,2.0,Calm,Calm,-,0.00,Snow,Light Snow,0,2013-03-02 05:00:00
12:04 AM,30.2,30.2,100,29.95,1.5,Variable,3.5,-,0.00,Snow,Light Snow,0,2013-03-02 05:04:00
12:25 AM,30.2,28.4,93,29.95,1.8,Variable,3.5,-,0.00,Snow,Light Snow,0,2013-03-02 05:25:00
12:29 AM,30.2,28.4,93,29.95,2.0,Calm,Calm,-,0.00,Snow,Light Snow,0,2013-03-02 05:29:00
12:50 AM,30.2,28.4,93,29.95,3.0,Calm,Calm,-,0.01,Snow,Light Snow,0,2013-03-02 05:50:00
12:53 AM,30.0,28.0,92,29.98,3.0,Calm,Calm,-,0.01,Snow,Light Snow,0,2013-03-02 05:53:00
1:04 AM,30.2,28.4,93,29.95,4.0,Calm,Calm,-,0.00,Snow,Light Snow,0,2013-03-02 06:04:00
1:15 AM,30.2,28.4,93,29.95,5.0,Calm,Calm,-,0.00,Snow,Light Snow,0,2013-03-02 06:15:00
1:53 AM,30.0,28.0,92,29.98,6.0,NE,3.5,-,0.00,,Overcast,40,2013-03-02 06:53:00
2:00 AM,30.2,28.4,93,29.94,6.0,Calm,Calm,-,N/A,,Overcast,0,2013-03-02 07:00:00
2:53 AM,28.9,27.0,92,29.97,8.0,Calm,Calm,-,N/A,,Overcast,0,2013-03-02 07:53:00
3:33 AM,28.4,26.6,93,29.93,9.0,Calm,Calm,-,N/A,,Overcast,0,2013-03-02 08:33:00
3:53 AM,28.9,26.1,89,29.96,7.0,Variable,3.5,-,N/A,,Overcast,0,2013-03-02 08:53:00
4:53 AM,28.0,25.0,88,29.96,4.0,Calm,Calm,-,0.00,Snow,Light Snow,0,2013-03-02 09:53:00
5:46 AM,26.6,24.8,93,29.94,2.5,Calm,Calm,-,0.00,Snow,Light Snow,0,2013-03-02 10:46:00
5:53 AM,27.0,25.0,92,29.97,2.0,Calm,Calm,-,0.00,Snow,Light Snow,0,2013-03-02 10:53:00
6:04 AM,26.6,24.8,93,29.94,5.0,Calm,Calm,-,0.00,Snow,Light Snow,0,2013-03-02 11:04:00
6:36 AM,26.6,24.8,93,29.94,6.0,Calm,Calm,-,0.00,Snow,Light Snow,0,2013-03-02 11:36:00
6:53 AM,27.0,25.0,92,29.98,5.0,Calm,Calm,-,0.00,Snow,Light Snow,0,2013-03-02 11:53:00
7:24 AM,26.6,24.8,93,29.95,4.0,Calm,Calm,-,0.00,Snow,Light Snow,0,2013-03-02 12:24:00
7:53 AM,27.0,24.1,89,29.99,6.0,Calm,Calm,-,0.00,,Overcast,0,2013-03-02 12:53:00
8:35 AM,26.6,24.8,93,29.97,4.0,Calm,Calm,-,0.00,Snow,Light Snow,0,2013-03-02 13:35:00
8:53 AM,27.0,24.1,89,30.01,7.0,Calm,Calm,-,0.00,,Overcast,0,2013-03-02 13:53:00
9:31 AM,28.4,24.8,86,29.97,10.0,Calm,Calm,-,N/A,,Overcast,0,2013-03-02 14:31:00
9:53 AM,28.0,25.0,88,30.01,10.0,Calm,Calm,-,N/A,,Overcast,0,2013-03-02 14:53:00
10:23 AM,26.6,24.8,93,29.97,7.0,Calm,Calm,-,0.00,Snow,Light Snow,0,2013-03-02 15:23:00
10:53 AM,28.0,24.1,85,30.01,10.0,Calm,Calm,-,0.00,,Overcast,0,2013-03-02 15:53:00
11:18 AM,28.4,24.8,86,29.98,10.0,Calm,Calm,-,N/A,,Overcast,0,2013-03-02 16:18:00
11:53 AM,28.0,21.9,78,30.02,10.0,NW,4.6,-,N/A,,Overcast,320,2013-03-02 16:53:00
12:19 PM,28.4,21.2,74,29.98,10.0,Variable,3.5,-,N/A,,Overcast,0,2013-03-02 17:19:00
12:33 PM,28.4,23.0,80,29.98,9.0,Variable,3.5,-,N/A,,Overcast,0,2013-03-02 17:33:00
12:53 PM,28.0,21.9,78,30.01,10.0,NW,6.9,-,N/A,,Overcast,320,2013-03-02 17:53:00
1:51 PM,28.4,21.2,74,29.97,10.0,NW,4.6,-,N/A,,Overcast,320,2013-03-02 18:51:00
1:53 PM,28.0,21.9,78,30.00,10.0,WNW,4.6,-,N/A,,Overcast,300,2013-03-02 18:53:00
2:42 PM,26.6,21.2,80,29.97,4.0,Variable,4.6,-,0.00,Snow,Light Snow,0,2013-03-02 19:42:00
2:49 PM,26.6,21.2,80,29.97,2.0,Variable,3.5,-,N/A,Snow,Light Snow,0,2013-03-02 19:49:00
2:50 PM,26.6,21.2,80,29.97,2.0,Variable,4.6,-,0.00,Snow,Light Snow,0,2013-03-02 19:50:00
2:53 PM,27.0,21.9,81,30.01,2.0,NNW,6.9,-,0.00,Snow,Light Snow,340,2013-03-02 19:53:00
3:08 PM,26.6,21.2,80,29.97,5.0,NW,3.5,-,0.00,Snow,Light Snow,320,2013-03-02 20:08:00
3:15 PM,26.6,21.2,80,29.97,8.0,Variable,4.6,-,0.00,,Overcast,0,2013-03-02 20:15:00
3:39 PM,26.6,21.2,80,29.97,1.5,Variable,3.5,-,0.00,Snow,Light Snow,0,2013-03-02 20:39:00
3:48 PM,26.6,21.2,80,29.97,1.5,Calm,Calm,-,0.01,Snow,Light Snow,0,2013-03-02 20:48:00
3:53 PM,27.0,23.0,85,30.01,3.0,Calm,Calm,-,0.01,Snow,Light Snow,0,2013-03-02 20:53:00
4:03 PM,26.6,21.2,80,29.97,8.0,Calm,Calm,-,0.00,,Overcast,0,2013-03-02 21:03:00
4:11 PM,26.6,23.0,86,29.97,8.0,Calm,Calm,-,0.00,Snow,Light Snow,0,2013-03-02 21:11:00
4:53 PM,27.0,23.0,85,30.02,2.0,Variable,3.5,-,0.00,Snow,Light Snow,0,2013-03-02 21:53:00
5:05 PM,26.6,23.0,86,29.99,4.0,Calm,Calm,-,N/A,Snow,Light Snow,0,2013-03-02 22:05:00
5:53 PM,26.1,21.9,84,30.04,7.0,Calm,Calm,-,0.00,Snow,Light Snow,0,2013-03-02 22:53:00
6:09 PM,26.6,21.2,80,30.00,4.0,NW,3.5,-,0.00,Snow,Light Snow,310,2013-03-02 23:09:00
6:16 PM,26.6,21.2,80,30.00,5.0,NW,3.5,-,0.00,Snow,Light Snow,320,2013-03-02 23:16:00
6:53 PM,26.1,21.9,84,30.05,5.0,Calm,Calm,-,0.00,Snow,Light Snow,0,2013-03-02 23:53:00
7:31 PM,26.6,21.2,80,30.02,5.0,NW,3.5,-,0.00,Snow,Light Snow,310,2013-03-03 00:31:00
7:53 PM,26.6,23.0,86,30.02,4.0,Variable,3.5,-,N/A,Snow,Light Snow,0,2013-03-03 00:53:00
8:07 PM,26.6,23.0,86,30.02,5.0,Variable,4.6,-,0.00,Snow,Light Snow,0,2013-03-03 01:07:00
8:16 PM,26.6,21.2,80,30.02,5.0,NNW,6.9,-,0.00,Snow,Light Snow,340,2013-03-03 01:16:00
8:34 PM,24.8,21.2,86,30.03,4.0,Calm,Calm,-,0.00,Snow,Light Snow,0,2013-03-03 01:34:00
8:53 PM,25.0,21.9,88,30.07,7.0,Variable,3.5,-,0.00,,Overcast,0,2013-03-03 01:53:00
9:53 PM,25.0,21.0,85,30.08,7.0,NW,3.5,-,0.00,Snow,Light Snow,310,2013-03-03 02:53:00
10:42 PM,24.8,21.2,86,30.03,6.0,Calm,Calm,-,0.00,Snow,Light Snow,0,2013-03-03 03:42:00
10:53 PM,25.0,21.9,88,30.07,5.0,Calm,Calm,-,0.00,Snow,Light Snow,0,2013-03-03 03:53:00
11:03 PM,24.8,21.2,86,30.03,5.0,Calm,Calm,-,0.00,Snow,Light Snow,0,2013-03-03 04:03:00
11:43 PM,24.8,21.2,86,30.02,4.0,Calm,Calm,-,0.00,Snow,Light Snow,0,2013-03-03 04:43:00
11:49 PM,24.8,21.2,86,30.02,4.0,Calm,Calm,-,0.00,Snow,Light Snow,0,2013-03-03 04:49:00
11:53 PM,25.0,21.0,85,30.06,3.0,Calm,Calm,-,0.00,Snow,Light Snow,0,2013-03-03 04:53:00